Regional Weather Roundup
Issued by NWS

Home | Current Version | Previous Version | Graphics & Text | Print | Product List | Glossary On
Versions: 1 2 3 4 5 6 7 8 9 10 11 12 13 14 15 16 17 18 19 20 21 22 23 24 25 26 27 28 29 30 31 32 33 34 35 36 37 38 39 40 41 42 43 44 45 46 47 48 49 50
946
ASUS43 KMKX 282100
RWRWI

WISCONSIN REGIONAL WEATHER ROUNDUP
NATIONAL WEATHER SERVICE MILWAUKEE/SULLIVAN WI
400 PM CDT SUN MAY 28 2017

NOTE: "FAIR" INDICATES FEW OR NO CLOUDS BELOW 12,000 FEET WITH NO
SIGNIFICANT WEATHER AND/OR OBSTRUCTIONS TO VISIBILITY.

WIZ001-002-006>008-014>016-023>028-282200-
NORTHWEST WISCONSIN

CITY           SKY/WX    TMP DP  RH WIND       PRES   REMARKS
SUPERIOR ARPT  NOT AVBL
ASHLAND        LGT RAIN  59  51  75 N9        29.64F
HAYWARD        CLOUDY    65  44  46 W8        29.66R
SIREN          CLOUDY    58  51  77 CALM      29.71R
CUMBERLAND     PTSUNNY   63  45  51 W13       29.69S
RICE LAKE      MOSUNNY   69  45  41 W17G25    29.70F
CHETEK         MOSUNNY   67  48  50 W9G22     29.69S
LADYSMITH      MOSUNNY   69  46  43 W16       29.69R
EAU CLAIRE     NOT AVBL
MENOMONIE      MOSUNNY   71  45  38 W18       29.70F
NEW RICHMOND   PTSUNNY   65  51  60 W9        29.72R
OSCEOLA        RAIN      66  49  54 W14G20    29.74S
$$

WIZ003>005-009-010-017-018-282200-
NORTH CENTRAL WISCONSIN

CITY           SKY/WX    TMP DP  RH WIND       PRES   REMARKS
MANITOWISH WTR MOSUNNY   62  54  75 NW10G16   29.64S
ARBOR VITAE    MOSUNNY   64  51  63 NW9G18    29.63S
WOODRUFF       MOSUNNY   64  51  63 NW9G18    29.63S
RHINELANDER    MOSUNNY   70  44  39 W18G29    29.64R
EAGLE RIVER    CLOUDY    60  51  74 NW9       29.64S
LAND O LAKES   CLOUDY    58  54  87 NE3       29.67S
PHILLIPS       PTSUNNY   67  44  43 W10G23    29.65R
TOMAHAWK       MOSUNNY   66  42  42 W16G26    29.65S
MEDFORD        MOSUNNY   66  44  43 W15G26    29.67S
MERRILL        MOSUNNY   70  47  43 W18G30    29.65R
$$

WIZ029-030-035-036-043>047-282200-
CENTRAL WISCONSIN

CITY           SKY/WX    TMP DP  RH WIND       PRES   REMARKS
WAUSAU         MOSUNNY   70  47  43 W17G30    29.64R
MOSINEE        MOSUNNY   70  46  43 W18G26    29.67R
MARSHFIELD     PTSUNNY   69  44  40 W21G29    29.68R
STEVENS POINT  PTSUNNY   70  46  42 W14G22    29.66R
WAUPACA        MOSUNNY   76  49  38 SW13G21   29.64F
WAUTOMA        PTSUNNY   75  46  35 W17G29      N/A
WISC RAPIDS    MOSUNNY   73  46  38 W22G33    29.68R
CAMP DOUGLAS   NOT AVBL
$$

WIZ011>013-019>022-031-037>040-048>050-282200-
NORTHEAST WISCONSIN

CITY           SKY/WX    TMP DP  RH WIND       PRES   REMARKS
ANTIGO         MOSUNNY   67  55  65 SW14G22   29.64F
SHAWANO        PTSUNNY   75  52  44 SW10G18   29.63F
OCONTO         MOSUNNY   72  53  50 SW9G16    29.62F
STURGEON BAY   MOSUNNY   65  58  78 S12       29.65F
GREEN BAY      MOSUNNY   70  58  65 S14G20    29.64F
MANITOWOC      NOT AVBL
APPLETON       PTSUNNY   73  48  40 SW12G21   29.64F
CLINTONVILLE   PTSUNNY   72  50  46 SW14      29.63F
OSHKOSH        PTSUNNY   72  54  53 S15G22    29.65F
$$

WIZ032>034-041-042-053>061-282200-
SOUTHWEST WISCONSIN

CITY           SKY/WX    TMP DP  RH WIND       PRES   REMARKS
LA CROSSE      PTSUNNY   76  48  37 W12       29.72S
SPARTA         MOSUNNY   73  45  36 W18G28    29.73R
VIROQUA        PTSUNNY   72  46  38 SW14G21   29.75S
BOSCOBEL       MOSUNNY   77  45  32 W18G26    29.73S
PRAIRIE DU CHI PTSUNNY   77  39  26 NW21      29.74S
PLATTEVILLE    SUNNY     75  46  35 W18G25    29.75S
$$

WIZ056-057-062-063-064-067-068-282200-
SOUTH CENTRAL WISCONSIN

CITY           SKY/WX    TMP DP  RH WIND       PRES   REMARKS
REEDSBURG      PTSUNNY   74  45  35 W17G26    29.70S
BARABOO/DELLS  MOSUNNY   73  42  31 W16G26    29.69S
LONE ROCK      NOT AVBL
MINERAL POINT  SUNNY     75  43  31 W23G31    29.73F
MADISON        PTSUNNY   73  55  53 VRB5      29.69F
MIDDLETON      PTSUNNY   74  54  49 W14G21    29.70F
WATERTOWN      MOSUNNY   71  56  58 SW12      29.70F
MONROE         MOSUNNY   73  52  46 W22G30    29.73F
JANESVILLE     MOSUNNY   73  54  49 SW16      29.72F
$$

WIZ051-052-058>065-066-070>072-282200-
SOUTHEAST WISCONSIN

CITY           SKY/WX    TMP DP  RH WIND       PRES   REMARKS
MILWAUKEE      MOSUNNY   75  53  46 W13       29.71F
WAUKESHA       MOSUNNY   70  54  56 W16       29.72F
MILWAUKEE/TIMM MOSUNNY   72  52  49 SW12G17   29.71F
RACINE         SUNNY     69  57  65 CALM      29.73F
KENOSHA        MOSUNNY   73  55  53 W13G18    29.72F
FOND DU LAC    MOSUNNY   73  54  51 SW12      29.67F
SHEBOYGAN      SUNNY     73  59  61 SW8       29.68F
WEST BEND      SUNNY     70  52  52 W10       29.70F
JUNEAU         MOSUNNY   70  55  58 S12G18    29.71F
$$

LSZ147-162-282200-
LAKE SUPERIOR

STATION/POSITION TIME  TEMP    WIND        PRES    WAVE
                       AIR SEA DIR/SP/G            HT/PER
                 (UTC) (F)     (DEG/KT/KT) (MB)    (FT/S)
W MID LAKE BUOY  1950   48 38  110/  2/  6 1003.8F   1
DEVILS ISLAND    2000   53     130/  3/  5 1004.3R
PORT WING        1940   57      20/  2/  2 1004.1S
SAXON HARBOR     2040   55     360/  2/  3 1004.4R
$$

LMZ867-665-643>646-282200-
LAKE MICHIGAN

STATION/POSITION TIME  TEMP    WIND        PRES    WAVE
                       AIR SEA DIR/SP/G            HT/PER
                 (UTC) (F)     (DEG/KT/KT) (MB)    (FT/S)
CHAMBERS ISLAND  2040   65     160/  6/ 14 1003.4F
N MID LAKE BUOY  1950   45 41  150/  8/  8 1005.5F   0
NORTHPORT PIER   2040   54     150/  9/ 13 1004.1F
KEWAUNEE LAKESHO 2030   51     180/  8/ 11 1004.6F
SHEBOYGAN LAKESH 2000   52     160/ 11/ 12 1005.5F
PORT WASHINGTON  2040   57     180/  5/  7 1007.1S
ATWATER BUOY     1909   53     120/  6/  8 1006.6F
MILWAUKEE LAKESH 2030   53     140/  3/  4   N/A
S MID LAKE BUOY  1950   53 49  300/  2/  4 1006.9S   0
KENOSHA   LAKESH 2000   56        CALM     1006.8
$$

TC  - TEMPERATURE IN CELSIUS
VSB - VISIBILITY IN STATUTE MILES
WCI - WIND CHILL INDEX
HX  - HEAT INDEX





USA.gov is the U.S. government's official web portal to all federal, state and local government web resources and services.